Saint Michaels, AZ

6:55 PM MDT on September 26, 2016 (GMT -0600)
Window Rock

Weather History for KRQE - April, 2013

Change the Weather History Date:

Wednesday, April 17, 2013

  Actual Average Record
Temperature  
Mean Temperature 36 °F -  
Max Temperature 45 °F 62 °F 80 °F (1989)
Min Temperature 26 °F 30 °F 18 °F (1960)
Degree Days  
Heating Degree Days 30    
Moisture  
Dew Point 20 °F    
Average Humidity 56    
Maximum Humidity 86    
Minimum Humidity 25    
Precipitation  
Precipitation 0.00 in - - ()
Sea Level Pressure  
Sea Level Pressure 29.77 in    
Wind  
Wind Speed 11 mph (West)    
Max Wind Speed 22 mph    
Max Gust Speed 29 mph    
Visibility 8 miles    
Events Rain , Snow    
Averages and records for this station are not official NWS values.
T = Trace of Precipitation, MM = Missing Value Source: NWS Daily Summary

Daily Weather History Graph

Daily Weather History Graph

Search for Another Location

Airport or City:

Trip Planner

Search our weather history database for the weather conditions in past years. The results will help you decide how hot, cold, wet, or windy it might be!

Date:

Astronomy

Apr. 17, 2013 Rise Set
Actual Time 6:40 AM MDT 7:51 PM MDT
Civil Twilight 6:14 AM MDT 8:17 PM MDT
Nautical Twilight 5:42 AM MDT 8:49 PM MDT
Astronomical Twilight 5:10 AM MDT 9:22 PM MDT
Moon 12:01 PM MDT (4/17) 1:27 AM MDT (4/17)
Length of Visible Light 14h 03m
Length of Day
13h 10m
Waxing Crescent, 43% of the Moon is Illuminated
Apr 17
Waxing Crescent
Apr 18
First Quarter
Apr 25
Full
May 2
Last Quarter
May 9
New

Hourly Weather History & Observations

Time (MDT) Temp. Windchill Dew Point Humidity Pressure Visibility Wind Dir Wind Speed Gust Speed Precip Events Conditions
12:53 AM 43.0 °F 38.8 °F 23.0 °F 45% 29.57 in 10.0 mi West 6.9 mph - N/A   Overcast
1:53 AM 42.1 °F 39.2 °F 21.9 °F 45% 29.57 in 10.0 mi SW 4.6 mph - N/A   Overcast
2:53 AM 43.0 °F 35.4 °F 27.0 °F 53% 29.55 in 10.0 mi SW 16.1 mph 21.9 mph 0.00 in   Overcast
3:53 AM 42.1 °F 33.1 °F 26.1 °F 53% 29.54 in 10.0 mi SW 20.7 mph 28.8 mph 0.00 in Rain Light Rain
4:53 AM 39.9 °F 32.5 °F 19.9 °F 45% 29.57 in 10.0 mi SW 12.7 mph 25.3 mph 0.00 in   Overcast
5:53 AM 37.0 °F 28.9 °F 18.0 °F 46% 29.60 in 10.0 mi WSW 12.7 mph 20.7 mph N/A   Mostly Cloudy
7:26 AM 32.0 °F 22.5 °F 26.6 °F 80% 29.83 in 2.0 mi WSW 12.7 mph - 0.00 in Snow Light Snow
7:34 AM 30.2 °F 22.6 °F 26.6 °F 86% 29.83 in 1.8 mi WSW 8.1 mph - 0.00 in Snow Light Snow
7:43 AM 30.2 °F 22.6 °F 26.6 °F 86% 29.83 in 3.0 mi SW 8.1 mph - 0.00 in Snow Light Snow
7:53 AM 32.0 °F 24.8 °F 26.1 °F 79% 29.68 in 9.0 mi SW 8.1 mph - 0.00 in   Overcast
8:53 AM 34.0 °F 25.5 °F 23.0 °F 64% 29.68 in 10.0 mi SSW 11.5 mph 20.7 mph N/A   Overcast
9:48 AM 35.6 °F 26.6 °F 21.2 °F 56% 29.83 in 10.0 mi West 13.8 mph 23.0 mph N/A   Overcast
9:53 AM 36.0 °F 26.3 °F 21.9 °F 57% 29.69 in 10.0 mi West 16.1 mph 23.0 mph N/A   Overcast
10:53 AM 41.0 °F 33.1 °F 18.0 °F 40% 29.67 in 10.0 mi WSW 15.0 mph 28.8 mph N/A   Scattered Clouds
11:53 AM 42.1 °F 32.8 °F 15.1 °F 34% 29.66 in 10.0 mi WSW 21.9 mph 26.5 mph N/A   Mostly Cloudy
12:53 PM 41.0 °F 33.5 °F 7.0 °F 25% 29.68 in 10.0 mi West 13.8 mph 28.8 mph N/A   Overcast
1:24 PM 39.2 °F 30.2 °F 15.8 °F 39% 29.82 in 7.0 mi NNW 17.3 mph 24.2 mph N/A   Overcast
1:53 PM 39.9 °F 33.4 °F 16.0 °F 38% 29.70 in 10.0 mi North 10.4 mph 17.3 mph N/A   Overcast
2:53 PM 42.1 °F 34.5 °F 12.0 °F 29% 29.69 in 7.0 mi NW 15.0 mph 24.2 mph N/A   Overcast
3:53 PM 39.9 °F 31.4 °F 18.0 °F 41% 29.74 in 10.0 mi NW 16.1 mph 23.0 mph N/A   Scattered Clouds
4:53 PM 39.9 °F 31.4 °F 19.9 °F 45% 29.77 in 10.0 mi NW 16.1 mph 20.7 mph N/A   Scattered Clouds
5:32 PM 33.8 °F 25.3 °F 26.6 °F 75% 29.92 in 2.0 mi WNW 11.5 mph 26.5 mph 0.00 in Snow Light Snow
5:39 PM 32.0 °F 23.0 °F 26.6 °F 80% 29.93 in 1.2 mi WNW 11.5 mph - 0.00 in Snow Light Snow
5:50 PM 33.8 °F 25.8 °F 26.6 °F 75% 29.93 in 3.0 mi NNW 10.4 mph - 0.00 in Snow Light Snow
5:53 PM 32.0 °F 24.2 °F 24.1 °F 73% 29.86 in 4.0 mi NNW 9.2 mph - 0.00 in Snow Light Snow
6:11 PM 33.8 °F 25.8 °F 23.0 °F 65% 29.94 in 8.0 mi NNW 10.4 mph - 0.00 in   Overcast
6:53 PM 32.0 °F 27.5 °F 21.0 °F 64% 29.88 in 10.0 mi WNW 4.6 mph - 0.00 in   Overcast
7:53 PM 33.1 °F 27.7 °F 16.0 °F 50% 29.90 in 10.0 mi NW 5.8 mph - N/A   Overcast
8:53 PM 30.0 °F - 12.0 °F 47% 29.94 in 10.0 mi Calm Calm - N/A   Scattered Clouds
9:53 PM 30.0 °F 24.1 °F 14.0 °F 51% 29.96 in 10.0 mi NNW 5.8 mph - N/A   Clear
10:53 PM 28.9 °F - 17.1 °F 61% 29.96 in 10.0 mi North - - N/A   Clear
11:53 PM 26.1 °F - 17.1 °F 69% 29.99 in 10.0 mi North - - N/A   Clear